| time (UTC) | temp F | wind direction | speed MPH | gust MPH | rain 1hr in | rain 24hr in | rain mn in | humidity % | barometer mb |
| 20260509012658 | 77 | 173 | 2.0 | 2.0 | 0.00 | 0.00 | 0.00 | 81 | 1010.3 |
| 20260509012154 | 77 | 148 | 4.0 | 5.0 | 0.00 | 0.00 | 0.00 | 80 | 1010.7 |
| 20260509011652 | 78 | 240 | 1.0 | 2.0 | 0.00 | 0.00 | 0.00 | 80 | 1010.3 |
| 20260509011149 | 78 | 165 | 2.0 | 3.0 | 0.00 | 0.00 | 0.00 | 80 | 1010.3 |
| 20260509010647 | 78 | 166 | 3.0 | 5.0 | 0.00 | 0.00 | 0.00 | 80 | 1010.3 |
| 20260509010143 | 78 | 203 | 1.0 | 1.0 | 0.00 | 0.00 | 0.00 | 79 | 1010.3 |
| 20260509005641 | 78 | 225 | 2.0 | 2.0 | 0.00 | 0.00 | 0.00 | 79 | 1010.0 |
| 20260509005137 | 78 | 69 | 0.0 | 1.0 | 0.00 | 0.00 | 0.00 | 79 | 1010.0 |
| 20260509004633 | 78 | 122 | 3.0 | 3.0 | 0.00 | 0.00 | 0.00 | 78 | 1010.0 |
| 20260509004130 | 78 | 158 | 0.0 | 1.0 | 0.00 | 0.00 | 0.00 | 78 | 1010.3 |
| 20260509003629 | 79 | 158 | 2.0 | 2.0 | 0.00 | 0.00 | 0.00 | 78 | 1010.3 |
| 20260509003126 | 79 | 240 | 1.0 | 1.0 | 0.00 | 0.00 | 0.00 | 78 | 1010.0 |
| 20260509002623 | 78 | 174 | 3.0 | 5.0 | 0.00 | 0.00 | 0.00 | 78 | 1010.0 |
| 20260509002120 | 79 | 221 | 3.0 | 3.0 | 0.00 | 0.00 | 0.00 | 77 | 1010.3 |
| 20260509001618 | 79 | 234 | 3.0 | 3.0 | 0.00 | 0.00 | 0.00 | 77 | 1010.3 |
| 20260509001113 | 79 | 172 | 3.0 | 3.0 | 0.00 | 0.00 | 0.00 | 77 | 1010.3 |
| 20260509000612 | 79 | 203 | 1.0 | 1.0 | 0.00 | 0.00 | 0.00 | 78 | 1010.3 |
| 20260509000108 | 79 | 170 | 3.0 | 5.0 | 0.00 | 0.00 | 0.00 | 77 | 1010.7 |
| 20260508235606 | 79 | 176 | 2.0 | 2.0 | 0.00 | 0.00 | 0.00 | 76 | 1010.3 |
| 20260508235102 | 79 | 128 | 3.0 | 6.0 | 0.00 | 0.00 | 0.00 | 76 | 1010.3 |
| 20260508234600 | 80 | 140 | 5.0 | 7.0 | 0.00 | 0.00 | 0.00 | 76 | 1010.3 |
| 20260508234056 | 80 | 152 | 3.0 | 5.0 | 0.00 | 0.00 | 0.00 | 75 | 1010.3 |
| 20260508233555 | 80 | 196 | 1.0 | 1.0 | 0.00 | 0.00 | 0.00 | 76 | 1010.3 |
| 20260508233052 | 80 | 230 | 3.0 | 5.0 | 0.00 | 0.00 | 0.00 | 74 | 1010.3 |
| 20260508232549 | 80 | 145 | 1.0 | 2.0 | 0.00 | 0.00 | 0.00 | 74 | 1010.0 |
| 20260508232046 | 81 | 236 | 2.0 | 2.0 | 0.00 | 0.00 | 0.00 | 73 | 1010.0 |
| 20260508231544 | 81 | 67 | 3.0 | 3.0 | 0.00 | 0.00 | 0.00 | 73 | 1010.0 |
| 20260508231041 | 81 | 213 | 2.0 | 2.0 | 0.00 | 0.00 | 0.00 | 72 | 1010.0 |
| 20260508230537 | 81 | 197 | 2.0 | 3.0 | 0.00 | 0.00 | 0.00 | 72 | 1010.3 |
| 20260508230034 | 80 | 250 | 2.0 | 2.0 | 0.00 | 0.00 | 0.00 | 72 | 1010.3 |
| 20260508225531 | 81 | 263 | 0.0 | 1.0 | 0.00 | 0.00 | 0.00 | 73 | 1010.3 |
| 20260508225028 | 81 | 205 | 2.0 | 2.0 | 0.00 | 0.00 | 0.00 | 72 | 1010.0 |
| 20260508224526 | 81 | 172 | 3.0 | 3.0 | 0.00 | 0.00 | 0.00 | 71 | 1010.0 |
| 20260508224023 | 81 | 206 | 2.0 | 3.0 | 0.00 | 0.00 | 0.00 | 71 | 1010.3 |
| 20260508223521 | 81 | 76 | 2.0 | 3.0 | 0.00 | 0.00 | 0.00 | 72 | 1010.0 |
| 20260508223018 | 82 | 250 | 2.0 | 2.0 | 0.00 | 0.00 | 0.00 | 71 | 1010.3 |
| 20260508222515 | 82 | 263 | 1.0 | 2.0 | 0.00 | 0.00 | 0.00 | 70 | 1010.0 |
| 20260508222012 | 82 | 244 | 2.0 | 2.0 | 0.00 | 0.00 | 0.00 | 70 | 1010.0 |
| 20260508221508 | 82 | 115 | 2.0 | 2.0 | 0.00 | 0.00 | 0.00 | 69 | 1010.3 |
| 20260508221004 | 82 | 172 | 3.0 | 6.0 | 0.00 | 0.00 | 0.00 | 69 | 1010.3 |
| 20260508220501 | 82 | 182 | 3.0 | 3.0 | 0.00 | 0.00 | 0.00 | 70 | 1010.3 |
| 20260508215956 | 82 | 149 | 3.0 | 3.0 | 0.00 | 0.00 | 0.00 | 69 | 1010.3 |
| 20260508215454 | 81 | 150 | 1.0 | 3.0 | 0.00 | 0.00 | 0.00 | 69 | 1010.7 |
| 20260508214950 | 82 | 160 | 2.0 | 2.0 | 0.00 | 0.00 | 0.00 | 69 | 1010.3 |
| 20260508214448 | 83 | 157 | 2.0 | 2.0 | 0.00 | 0.00 | 0.00 | 68 | 1010.7 |
| 20260508213944 | 81 | 191 | 0.0 | 1.0 | 0.00 | 0.00 | 0.00 | 70 | 1010.7 |
| 20260508213442 | 81 | 172 | 2.0 | 3.0 | 0.00 | 0.00 | 0.00 | 70 | 1010.3 |
| 20260508212937 | 80 | 176 | 1.0 | 1.0 | 0.00 | 0.00 | 0.00 | 72 | 1010.3 |
| 20260508212434 | 81 | 238 | 1.0 | 1.0 | 0.00 | 0.00 | 0.00 | 70 | 1010.7 |
| 20260508211930 | 81 | 219 | 0.0 | 1.0 | 0.00 | 0.00 | 0.00 | 71 | 1010.7 |
| 20260508211425 | 81 | 285 | 1.0 | 1.0 | 0.00 | 0.00 | 0.00 | 70 | 1010.7 |
| 20260508210923 | 81 | 151 | 3.0 | 5.0 | 0.00 | 0.00 | 0.00 | 70 | 1011.0 |
| 20260508210420 | 81 | 41 | 1.0 | 1.0 | 0.00 | 0.00 | 0.00 | 70 | 1011.0 |
| 20260508205916 | 80 | 213 | 1.0 | 1.0 | 0.00 | 0.00 | 0.00 | 72 | 1011.0 |
| 20260508205413 | 80 | 184 | 1.0 | 1.0 | 0.00 | 0.00 | 0.00 | 72 | 1011.3 |
| 20260508204909 | 81 | 183 | 3.0 | 3.0 | 0.00 | 0.00 | 0.00 | 71 | 1011.3 |
| 20260508204407 | 81 | 341 | 0.0 | 1.0 | 0.00 | 0.00 | 0.00 | 71 | 1011.3 |
| 20260508203902 | 82 | 76 | 1.0 | 2.0 | 0.00 | 0.00 | 0.00 | 69 | 1011.0 |
| 20260508203358 | 82 | 209 | 3.0 | 5.0 | 0.00 | 0.00 | 0.00 | 68 | 1011.3 |
| 20260508202854 | 81 | 216 | 2.0 | 3.0 | 0.00 | 0.00 | 0.00 | 69 | 1011.7 |
| 20260508202351 | 81 | 165 | 1.0 | 2.0 | 0.00 | 0.00 | 0.00 | 70 | 1011.3 |
| 20260508201849 | 80 | 118 | 3.0 | 3.0 | 0.00 | 0.00 | 0.00 | 71 | 1011.3 |
| 20260508201345 | 81 | 86 | 0.0 | 0.0 | 0.00 | 0.00 | 0.00 | 70 | 1011.7 |
| 20260508200842 | 80 | 241 | 2.0 | 2.0 | 0.00 | 0.00 | 0.00 | 69 | 1012.0 |
| 20260508200339 | 80 | 261 | 0.0 | 1.0 | 0.00 | 0.00 | 0.00 | 70 | 1011.7 |
| 20260508195834 | 80 | 126 | 3.0 | 3.0 | 0.00 | 0.00 | 0.00 | 70 | 1012.0 |
| 20260508195331 | 80 | 316 | 0.0 | 0.0 | 0.00 | 0.00 | 0.00 | 70 | 1012.0 |
| 20260508194827 | 79 | 214 | 1.0 | 2.0 | 0.00 | 0.00 | 0.00 | 71 | 1011.7 |
| 20260508194325 | 80 | 203 | 3.0 | 5.0 | 0.00 | 0.00 | 0.00 | 69 | 1012.0 |
| 20260508193822 | 80 | 178 | 2.0 | 2.0 | 0.00 | 0.00 | 0.00 | 69 | 1012.4 |
| 20260508193319 | 79 | 247 | 2.0 | 3.0 | 0.00 | 0.00 | 0.00 | 70 | 1012.4 |
| 20260508192815 | 79 | 352 | 1.0 | 2.0 | 0.00 | 0.00 | 0.00 | 71 | 1012.4 |
| 20260508192312 | 80 | 131 | 3.0 | 5.0 | 0.00 | 0.00 | 0.00 | 70 | 1012.4 |
| 20260508191809 | 79 | 229 | 1.0 | 2.0 | 0.00 | 0.00 | 0.00 | 71 | 1012.0 |
| 20260508191306 | 79 | 223 | 3.0 | 3.0 | 0.00 | 0.00 | 0.00 | 70 | 1012.4 |
| 20260508190804 | 79 | 146 | 6.0 | 8.0 | 0.00 | 0.00 | 0.00 | 70 | 1012.4 |
| 20260508190259 | 81 | 102 | 3.0 | 5.0 | 0.00 | 0.00 | 0.00 | 67 | 1012.7 |
| 20260508185756 | 80 | 160 | 0.0 | 0.0 | 0.00 | 0.00 | 0.00 | 69 | 1012.4 |
| 20260508185254 | 79 | 201 | 1.0 | 2.0 | 0.00 | 0.00 | 0.00 | 69 | 1012.4 |
| 20260508184750 | 79 | 297 | 2.0 | 2.0 | 0.00 | 0.00 | 0.00 | 71 | 1012.4 |
| 20260508184248 | 78 | 41 | 0.0 | 1.0 | 0.00 | 0.00 | 0.00 | 72 | 1012.4 |
| 20260508183745 | 78 | 250 | 1.0 | 1.0 | 0.00 | 0.00 | 0.00 | 71 | 1012.7 |
| 20260508183241 | 79 | 231 | 3.0 | 3.0 | 0.00 | 0.00 | 0.00 | 70 | 1012.7 |
| 20260508182737 | 78 | 187 | 1.0 | 2.0 | 0.00 | 0.00 | 0.00 | 72 | 1013.1 |
| 20260508182234 | 77 | 203 | 3.0 | 3.0 | 0.00 | 0.00 | 0.00 | 71 | 1013.5 |
| 20260508181729 | 77 | 162 | 3.0 | 3.0 | 0.00 | 0.00 | 0.00 | 72 | 1013.1 |
| 20260508181227 | 78 | 166 | 2.0 | 2.0 | 0.00 | 0.00 | 0.00 | 71 | 1013.5 |
| 20260508180723 | 78 | 201 | 3.0 | 3.0 | 0.00 | 0.00 | 0.00 | 69 | 1013.5 |
| 20260508180220 | 78 | 183 | 2.0 | 2.0 | 0.00 | 0.00 | 0.00 | 70 | 1013.5 |
| 20260508175717 | 78 | 236 | 1.0 | 1.0 | 0.00 | 0.00 | 0.00 | 69 | 1013.5 |
| 20260508175213 | 77 | 202 | 0.0 | 1.0 | 0.00 | 0.00 | 0.00 | 70 | 1013.5 |
| 20260508174712 | 76 | 18 | 1.0 | 1.0 | 0.00 | 0.00 | 0.00 | 72 | 1013.5 |
| 20260508174208 | 77 | 65 | 0.0 | 0.0 | 0.00 | 0.00 | 0.00 | 72 | 1013.5 |
| 20260508173704 | 77 | 61 | 2.0 | 2.0 | 0.00 | 0.00 | 0.00 | 71 | 1013.5 |
| 20260508173200 | 77 | 316 | 0.0 | 1.0 | 0.00 | 0.00 | 0.00 | 70 | 1013.8 |
| 20260508172658 | 77 | 176 | 2.0 | 2.0 | 0.00 | 0.00 | 0.00 | 71 | 1013.8 |
| 20260508172155 | 77 | 271 | 1.0 | 1.0 | 0.00 | 0.00 | 0.00 | 70 | 1013.8 |
| 20260508171651 | 77 | 272 | 1.0 | 1.0 | 0.00 | 0.00 | 0.00 | 69 | 1013.8 |
| 20260508171147 | 76 | 243 | 2.0 | 2.0 | 0.00 | 0.00 | 0.00 | 70 | 1013.5 |
| 20260508170644 | 76 | 212 | 2.0 | 2.0 | 0.00 | 0.00 | 0.00 | 72 | 1013.8 |
| 20260508170142 | 77 | 322 | 0.0 | 0.0 | 0.00 | 0.00 | 0.00 | 71 | 1013.5 |
| 20260508165639 | 76 | 33 | 0.0 | 0.0 | 0.00 | 0.00 | 0.00 | 70 | 1013.8 |
| 20260508165136 | 77 | 321 | 1.0 | 1.0 | 0.00 | 0.00 | 0.00 | 70 | 1014.1 |
| 20260508164632 | 76 | 348 | 3.0 | 3.0 | 0.00 | 0.00 | 0.00 | 70 | 1014.1 |
| 20260508164129 | 76 | 129 | 0.0 | 0.0 | 0.00 | 0.00 | 0.00 | 70 | 1013.8 |
| 20260508163627 | 76 | 49 | 0.0 | 0.0 | 0.00 | 0.00 | 0.00 | 71 | 1013.8 |
| 20260508163124 | 75 | 351 | 1.0 | 2.0 | 0.00 | 0.00 | 0.00 | 70 | 1014.1 |
| 20260508162620 | 74 | 254 | 1.0 | 1.0 | 0.00 | 0.00 | 0.00 | 71 | 1014.5 |
| 20260508162118 | 75 | 184 | 0.0 | 1.0 | 0.00 | 0.00 | 0.00 | 71 | 1014.5 |
| 20260508161614 | 73 | 256 | 0.0 | 1.0 | 0.00 | 0.00 | 0.00 | 73 | 1014.5 |
| 20260508161112 | 72 | 239 | 1.0 | 1.0 | 0.00 | 0.00 | 0.00 | 75 | 1014.5 |
| 20260508160610 | 72 | 233 | 1.0 | 1.0 | 0.00 | 0.00 | 0.00 | 73 | 1014.8 |
| 20260508160107 | 72 | 244 | 1.0 | 1.0 | 0.00 | 0.00 | 0.00 | 73 | 1014.5 |
| 20260508155604 | 72 | 189 | 1.0 | 2.0 | 0.00 | 0.00 | 0.00 | 73 | 1014.5 |
| 20260508155101 | 73 | 163 | 2.0 | 2.0 | 0.00 | 0.00 | 0.00 | 72 | 1014.5 |
| 20260508154558 | 73 | 173 | 0.0 | 0.0 | 0.00 | 0.00 | 0.00 | 73 | 1014.8 |
| 20260508154055 | 72 | 246 | 0.0 | 0.0 | 0.00 | 0.00 | 0.00 | 72 | 1014.8 |
| 20260508153552 | 72 | 162 | 2.0 | 2.0 | 0.00 | 0.00 | 0.00 | 72 | 1015.2 |
| 20260508153048 | 74 | 183 | 1.0 | 2.0 | 0.00 | 0.00 | 0.00 | 69 | 1014.8 |
| 20260508152545 | 73 | 284 | 1.0 | 1.0 | 0.00 | 0.00 | 0.00 | 71 | 1014.8 |
| 20260508152040 | 71 | 265 | 0.0 | 0.0 | 0.00 | 0.00 | 0.00 | 74 | 1014.8 |
| 20260508151537 | 69 | 270 | 1.0 | 1.0 | 0.00 | 0.00 | 0.00 | 76 | 1014.8 |
| 20260508151034 | 69 | 38 | 0.0 | 0.0 | 0.00 | 0.00 | 0.00 | 76 | 1015.2 |
| 20260508150531 | 69 | 99 | 1.0 | 1.0 | 0.00 | 0.00 | 0.00 | 75 | 1015.2 |
| 20260508150027 | 69 | 223 | 1.0 | 1.0 | 0.00 | 0.00 | 0.00 | 75 | 1015.2 |
| 20260508145524 | 69 | 237 | 1.0 | 2.0 | 0.00 | 0.00 | 0.00 | 74 | 1015.2 |
| 20260508145020 | 69 | 214 | 1.0 | 2.0 | 0.00 | 0.00 | 0.00 | 74 | 1015.2 |
| 20260508144518 | 69 | 260 | 0.0 | 0.0 | 0.00 | 0.00 | 0.00 | 75 | 1015.2 |
| 20260508144015 | 69 | 40 | 0.0 | 0.0 | 0.00 | 0.00 | 0.00 | 74 | 1015.2 |
| 20260508143513 | 68 | 33 | 0.0 | 0.0 | 0.00 | 0.00 | 0.00 | 76 | 1014.8 |
| 20260508143009 | 66 | 166 | 1.0 | 2.0 | 0.00 | 0.00 | 0.00 | 78 | 1014.8 |
| 20260508142506 | 66 | 32 | 0.0 | 0.0 | 0.00 | 0.00 | 0.00 | 79 | 1015.2 |
| 20260508142003 | 65 | 245 | 0.0 | 0.0 | 0.00 | 0.00 | 0.00 | 81 | 1015.2 |
| 20260508141459 | 64 | 185 | 1.0 | 2.0 | 0.00 | 0.00 | 0.00 | 81 | 1015.2 |
| 20260508140957 | 64 | 128 | 2.0 | 2.0 | 0.00 | 0.00 | 0.00 | 81 | 1015.2 |
| 20260508140454 | 64 | 170 | 2.0 | 3.0 | 0.00 | 0.00 | 0.00 | 81 | 1015.2 |
| 20260508135949 | 64 | 157 | 1.0 | 2.0 | 0.00 | 0.00 | 0.00 | 82 | 1015.5 |
| 20260508135446 | 64 | 250 | 0.0 | 0.0 | 0.00 | 0.00 | 0.00 | 81 | 1015.5 |
| 20260508134943 | 64 | 68 | 0.0 | 0.0 | 0.00 | 0.00 | 0.00 | 81 | 1015.2 |
| 20260508134439 | 64 | 188 | 0.0 | 1.0 | 0.00 | 0.00 | 0.00 | 82 | 1015.5 |
| 20260508133936 | 64 | 54 | 0.0 | 0.0 | 0.00 | 0.00 | 0.00 | 81 | 1015.8 |
| 20260508133434 | 64 | 280 | 0.0 | 0.0 | 0.00 | 0.00 | 0.00 | 81 | 1015.8 |
| 20260508132930 | 64 | 10 | 1.0 | 2.0 | 0.00 | 0.00 | 0.00 | 81 | 1015.8 |
| 20260508132428 | 64 | 333 | 1.0 | 1.0 | 0.00 | 0.00 | 0.00 | 81 | 1015.8 |
| 20260508131925 | 63 | 318 | 1.0 | 1.0 | 0.00 | 0.00 | 0.00 | 81 | 1015.5 |
| 20260508131420 | 63 | 351 | 3.0 | 3.0 | 0.00 | 0.00 | 0.00 | 81 | 1015.5 |
| 20260508130917 | 63 | 41 | 1.0 | 1.0 | 0.00 | 0.00 | 0.00 | 81 | 1015.5 |
| 20260508130414 | 63 | 313 | 0.0 | 0.0 | 0.00 | 0.00 | 0.00 | 81 | 1015.5 |
| 20260508125910 | 63 | 346 | 2.0 | 2.0 | 0.00 | 0.00 | 0.00 | 81 | 1015.5 |
| 20260508125406 | 63 | 3 | 2.0 | 2.0 | 0.00 | 0.00 | 0.00 | 81 | 1015.5 |
| 20260508124904 | 63 | 32 | 1.0 | 1.0 | 0.00 | 0.00 | 0.00 | 81 | 1015.2 |
| 20260508124401 | 63 | 18 | 3.0 | 3.0 | 0.00 | 0.00 | 0.00 | 81 | 1015.2 |
| 20260508123859 | 63 | 335 | 3.0 | 3.0 | 0.00 | 0.00 | 0.00 | 81 | 1015.2 |
| 20260508123357 | 63 | 8 | 3.0 | 3.0 | 0.00 | 0.00 | 0.00 | 81 | 1015.2 |
| 20260508122853 | 63 | 336 | 2.0 | 2.0 | 0.00 | 0.00 | 0.00 | 81 | 1015.5 |
| 20260508122350 | 63 | 337 | 3.0 | 3.0 | 0.00 | 0.00 | 0.00 | 81 | 1015.5 |
| 20260508121848 | 63 | 36 | 1.0 | 1.0 | 0.00 | 0.00 | 0.00 | 81 | 1015.5 |
| 20260508121346 | 63 | 345 | 2.0 | 3.0 | 0.00 | 0.00 | 0.00 | 81 | 1015.8 |
| 20260508120843 | 63 | 14 | 1.0 | 1.0 | 0.00 | 0.00 | 0.00 | 81 | 1016.2 |
| 20260508120341 | 63 | 301 | 1.0 | 1.0 | 0.00 | 0.00 | 0.00 | 81 | 1015.8 |
| 20260508115838 | 63 | 284 | 1.0 | 2.0 | 0.00 | 0.00 | 0.00 | 81 | 1016.2 |
| 20260508115336 | 63 | 307 | 1.0 | 1.0 | 0.00 | 0.00 | 0.00 | 81 | 1016.2 |
| 20260508114832 | 63 | 336 | 2.0 | 2.0 | 0.00 | 0.00 | 0.00 | 81 | 1015.8 |
| 20260508114329 | 63 | 335 | 3.0 | 3.0 | 0.00 | 0.00 | 0.00 | 81 | 1016.2 |
| 20260508113826 | 63 | 312 | 1.0 | 1.0 | 0.00 | 0.00 | 0.00 | 81 | 1016.2 |
| 20260508113324 | 63 | 330 | 1.0 | 1.0 | 0.00 | 0.00 | 0.00 | 81 | 1015.8 |
| 20260508112820 | 63 | 281 | 1.0 | 1.0 | 0.00 | 0.00 | 0.00 | 81 | 1016.2 |
| 20260508112317 | 63 | 269 | 0.0 | 0.0 | 0.00 | 0.00 | 0.00 | 81 | 1016.2 |
| 20260508111813 | 63 | 299 | 1.0 | 1.0 | 0.00 | 0.00 | 0.00 | 81 | 1016.2 |
| 20260508111311 | 63 | 290 | 0.0 | 0.0 | 0.00 | 0.00 | 0.00 | 81 | 1016.2 |
| 20260508110808 | 63 | 319 | 1.0 | 2.0 | 0.00 | 0.00 | 0.00 | 81 | 1015.5 |
| 20260508110306 | 63 | 286 | 2.0 | 2.0 | 0.00 | 0.00 | 0.00 | 81 | 1015.8 |
| 20260508105805 | 63 | 1 | 2.0 | 2.0 | 0.00 | 0.00 | 0.00 | 81 | 1015.5 |
| 20260508105305 | 63 | 288 | 0.0 | 1.0 | 0.00 | 0.00 | 0.00 | 81 | 1015.8 |
| 20260508104759 | 63 | 7 | 1.0 | 1.0 | 0.00 | 0.00 | 0.00 | 82 | 1015.8 |
| 20260508104256 | 62 | 341 | 2.0 | 2.0 | 0.00 | 0.00 | 0.00 | 81 | 1015.8 |
| 20260508103753 | 62 | 337 | 1.0 | 2.0 | 0.00 | 0.00 | 0.00 | 82 | 1015.8 |
| 20260508103250 | 62 | 295 | 1.0 | 1.0 | 0.00 | 0.00 | 0.00 | 82 | 1015.8 |
| 20260508102747 | 62 | 343 | 2.0 | 2.0 | 0.00 | 0.00 | 0.00 | 82 | 1015.5 |
| 20260508102245 | 62 | 0 | 3.0 | 5.0 | 0.00 | 0.00 | 0.00 | 83 | 1015.5 |
| 20260508101742 | 62 | 357 | 2.0 | 2.0 | 0.00 | 0.00 | 0.00 | 83 | 1015.8 |
| 20260508101240 | 62 | 358 | 2.0 | 3.0 | 0.00 | 0.00 | 0.00 | 83 | 1015.5 |
| 20260508100738 | 62 | 295 | 2.0 | 2.0 | 0.00 | 0.00 | 0.00 | 83 | 1015.5 |
| 20260508100235 | 62 | 1 | 2.0 | 2.0 | 0.00 | 0.00 | 0.00 | 83 | 1015.8 |
| 20260508095731 | 62 | 353 | 3.0 | 3.0 | 0.00 | 0.00 | 0.00 | 81 | 1015.8 |
| 20260508095229 | 63 | 298 | 1.0 | 1.0 | 0.00 | 0.00 | 0.00 | 79 | 1015.8 |
| 20260508094725 | 63 | 10 | 1.0 | 1.0 | 0.00 | 0.00 | 0.00 | 79 | 1015.8 |
| 20260508094222 | 63 | 314 | 1.0 | 1.0 | 0.00 | 0.00 | 0.00 | 79 | 1016.2 |
| 20260508093720 | 63 | 292 | 1.0 | 1.0 | 0.00 | 0.00 | 0.00 | 79 | 1016.5 |
| 20260508093218 | 63 | 333 | 0.0 | 1.0 | 0.00 | 0.00 | 0.00 | 79 | 1016.2 |
| 20260508092714 | 63 | 292 | 1.0 | 1.0 | 0.00 | 0.00 | 0.00 | 79 | 1016.2 |
| 20260508092212 | 63 | 300 | 1.0 | 1.0 | 0.00 | 0.00 | 0.00 | 79 | 1016.2 |
| 20260508091710 | 63 | 304 | 1.0 | 1.0 | 0.00 | 0.00 | 0.00 | 79 | 1015.8 |
| 20260508091207 | 63 | 321 | 1.0 | 1.0 | 0.00 | 0.00 | 0.00 | 78 | 1015.5 |
| 20260508090704 | 63 | 10 | 0.0 | 0.0 | 0.00 | 0.00 | 0.00 | 78 | 1015.5 |
| 20260508090202 | 63 | 286 | 1.0 | 1.0 | 0.00 | 0.00 | 0.00 | 78 | 1015.5 |
| 20260508085657 | 63 | 323 | 1.0 | 1.0 | 0.00 | 0.00 | 0.00 | 78 | 1015.5 |
| 20260508085155 | 63 | 359 | 2.0 | 2.0 | 0.00 | 0.00 | 0.00 | 78 | 1015.5 |
| 20260508084651 | 63 | 310 | 1.0 | 2.0 | 0.00 | 0.00 | 0.00 | 78 | 1015.8 |
| 20260508084148 | 63 | 237 | 0.0 | 0.0 | 0.00 | 0.00 | 0.00 | 77 | 1015.8 |
| 20260508083646 | 63 | 314 | 1.0 | 2.0 | 0.00 | 0.00 | 0.00 | 77 | 1015.8 |
| 20260508083143 | 63 | 333 | 2.0 | 2.0 | 0.00 | 0.00 | 0.00 | 78 | 1015.8 |
| 20260508082638 | 63 | 310 | 1.0 | 1.0 | 0.00 | 0.00 | 0.00 | 77 | 1016.2 |
| 20260508082136 | 63 | 330 | 1.0 | 1.0 | 0.00 | 0.00 | 0.00 | 77 | 1016.2 |
| 20260508081633 | 63 | 337 | 2.0 | 2.0 | 0.00 | 0.00 | 0.00 | 77 | 1015.8 |
| 20260508081129 | 63 | 345 | 1.0 | 2.0 | 0.00 | 0.00 | 0.00 | 77 | 1015.8 |
| 20260508080627 | 63 | 323 | 0.0 | 0.0 | 0.00 | 0.00 | 0.00 | 77 | 1016.2 |
| 20260508080125 | 63 | 336 | 1.0 | 2.0 | 0.00 | 0.00 | 0.00 | 77 | 1015.8 |
| 20260508075621 | 63 | 346 | 2.0 | 2.0 | 0.00 | 0.00 | 0.00 | 77 | 1015.8 |
| 20260508075118 | 63 | 300 | 1.0 | 1.0 | 0.00 | 0.00 | 0.00 | 77 | 1015.5 |
| 20260508074616 | 63 | 320 | 2.0 | 2.0 | 0.00 | 0.00 | 0.00 | 77 | 1015.8 |
| 20260508074113 | 63 | 303 | 1.0 | 2.0 | 0.00 | 0.00 | 0.00 | 77 | 1015.8 |
| 20260508073610 | 63 | 303 | 1.0 | 1.0 | 0.00 | 0.00 | 0.00 | 77 | 1015.8 |
| 20260508073108 | 63 | 300 | 1.0 | 1.0 | 0.00 | 0.00 | 0.00 | 78 | 1016.2 |
| 20260508072603 | 63 | 315 | 1.0 | 1.0 | 0.00 | 0.00 | 0.00 | 78 | 1015.5 |
| 20260508072100 | 63 | 334 | 1.0 | 2.0 | 0.00 | 0.00 | 0.00 | 78 | 1015.5 |
| 20260508071558 | 63 | 342 | 2.0 | 2.0 | 0.00 | 0.00 | 0.00 | 78 | 1015.5 |
| 20260508071056 | 63 | 344 | 2.0 | 2.0 | 0.00 | 0.00 | 0.00 | 78 | 1015.8 |
| 20260508070553 | 63 | 333 | 2.0 | 3.0 | 0.00 | 0.00 | 0.00 | 78 | 1015.8 |
| 20260508070052 | 63 | 43 | 0.0 | 0.0 | 0.00 | 0.00 | 0.00 | 77 | 1016.2 |
| 20260508065549 | 63 | 333 | 2.0 | 2.0 | 0.00 | 0.00 | 0.00 | 78 | 1016.2 |
| 20260508065047 | 63 | 333 | 2.0 | 2.0 | 0.00 | 0.00 | 0.00 | 78 | 1016.2 |
| 20260508064544 | 63 | 341 | 2.0 | 2.0 | 0.00 | 0.00 | 0.00 | 78 | 1016.2 |
| 20260508064042 | 63 | 305 | 2.0 | 2.0 | 0.00 | 0.00 | 0.00 | 78 | 1016.9 |
| 20260508063539 | 63 | 288 | 1.0 | 1.0 | 0.00 | 0.00 | 0.00 | 77 | 1016.9 |
| 20260508063037 | 63 | 326 | 2.0 | 2.0 | 0.00 | 0.00 | 0.00 | 77 | 1016.9 |
| 20260508062534 | 63 | 285 | 0.0 | 0.0 | 0.00 | 0.00 | 0.00 | 78 | 1016.9 |
| 20260508062031 | 63 | 357 | 0.0 | 0.0 | 0.00 | 0.00 | 0.00 | 78 | 1016.9 |
| 20260508061529 | 63 | 307 | 1.0 | 1.0 | 0.00 | 0.00 | 0.00 | 77 | 1016.9 |
| 20260508061025 | 62 | 271 | 0.0 | 0.0 | 0.00 | 0.00 | 0.00 | 78 | 1016.9 |
| 20260508060522 | 62 | 282 | 0.0 | 0.0 | 0.00 | 0.00 | 0.00 | 78 | 1016.9 |
| 20260508060020 | 62 | 292 | 0.0 | 1.0 | 0.00 | 0.00 | 0.00 | 78 | 1016.5 |
| 20260508055515 | 63 | 338 | 1.0 | 2.0 | 0.00 | 0.00 | 0.00 | 78 | 1016.9 |
| 20260508055012 | 63 | 282 | 0.0 | 0.0 | 0.00 | 0.00 | 0.00 | 78 | 1017.2 |
| 20260508054508 | 62 | 271 | 0.0 | 0.0 | 0.00 | 0.00 | 0.00 | 78 | 1016.9 |
| 20260508054006 | 62 | 308 | 1.0 | 1.0 | 0.00 | 0.00 | 0.00 | 78 | 1016.9 |
| 20260508053503 | 62 | 293 | 1.0 | 1.0 | 0.00 | 0.00 | 0.00 | 78 | 1016.9 |
| 20260508053001 | 62 | 332 | 1.0 | 1.0 | 0.00 | 0.00 | 0.00 | 77 | 1016.5 |
| 20260508052458 | 62 | 305 | 0.0 | 1.0 | 0.00 | 0.00 | 0.00 | 77 | 1016.5 |
| 20260508051954 | 62 | 351 | 2.0 | 2.0 | 0.00 | 0.00 | 0.00 | 77 | 1016.2 |
| 20260508051449 | 62 | 331 | 0.0 | 1.0 | 0.00 | 0.00 | 0.00 | 78 | 1016.2 |
| 20260508050946 | 63 | 348 | 2.0 | 2.0 | 0.00 | 0.00 | 0.00 | 77 | 1016.5 |
| 20260508050442 | 63 | 354 | 0.0 | 1.0 | 0.00 | 0.00 | 0.00 | 77 | 1017.2 |
| 20260508045939 | 63 | 239 | 1.0 | 1.0 | 0.00 | 0.00 | 0.00 | 78 | 1017.2 |
| 20260508045437 | 62 | 293 | 1.0 | 1.0 | 0.00 | 0.00 | 0.00 | 78 | 1016.9 |
| 20260508044934 | 63 | 313 | 2.0 | 2.0 | 0.00 | 0.00 | 0.00 | 77 | 1016.2 |
| 20260508044431 | 62 | 44 | 0.0 | 0.0 | 0.00 | 0.00 | 0.00 | 78 | 1016.2 |
| 20260508043926 | 62 | 331 | 1.0 | 2.0 | 0.00 | 0.00 | 0.00 | 78 | 1016.5 |
| 20260508043424 | 62 | 336 | 2.0 | 2.0 | 0.00 | 0.00 | 0.00 | 77 | 1016.5 |
| 20260508042920 | 62 | 331 | 2.0 | 2.0 | 0.00 | 0.00 | 0.00 | 77 | 1016.5 |
| 20260508042418 | 62 | 305 | 1.0 | 1.0 | 0.00 | 0.00 | 0.00 | 78 | 1016.5 |
| 20260508041914 | 62 | 309 | 0.0 | 0.0 | 0.00 | 0.00 | 0.00 | 78 | 1016.9 |
| 20260508041411 | 62 | 297 | 1.0 | 1.0 | 0.00 | 0.00 | 0.00 | 77 | 1016.9 |
| 20260508040908 | 62 | 309 | 1.0 | 1.0 | 0.00 | 0.00 | 0.00 | 78 | 1017.2 |
| 20260508040405 | 62 | 307 | 0.0 | 1.0 | 0.00 | 0.00 | 0.00 | 77 | 1017.2 |
| 20260508035903 | 62 | 290 | 1.0 | 1.0 | 0.00 | 0.00 | 0.00 | 78 | 1017.2 |
| 20260508035400 | 62 | 343 | 1.0 | 1.0 | 0.00 | 0.00 | 0.00 | 78 | 1017.2 |
| 20260508034856 | 62 | 285 | 0.0 | 1.0 | 0.00 | 0.00 | 0.00 | 78 | 1017.5 |
| 20260508034354 | 63 | 296 | 1.0 | 1.0 | 0.00 | 0.00 | 0.00 | 78 | 1017.5 |
| 20260508033850 | 62 | 286 | 1.0 | 1.0 | 0.00 | 0.00 | 0.00 | 78 | 1017.5 |
| 20260508033348 | 62 | 303 | 2.0 | 2.0 | 0.00 | 0.00 | 0.00 | 78 | 1017.9 |
| 20260508032846 | 62 | 272 | 0.0 | 1.0 | 0.00 | 0.00 | 0.00 | 78 | 1017.5 |
| 20260508032343 | 62 | 264 | 0.0 | 0.0 | 0.00 | 0.00 | 0.00 | 78 | 1017.5 |
| 20260508031839 | 62 | 268 | 0.0 | 0.0 | 0.00 | 0.00 | 0.00 | 78 | 1017.9 |
| 20260508031336 | 63 | 272 | 0.0 | 0.0 | 0.00 | 0.00 | 0.00 | 78 | 1017.5 |
| 20260508030833 | 62 | 267 | 0.0 | 0.0 | 0.00 | 0.00 | 0.00 | 78 | 1016.9 |
| 20260508030330 | 63 | 314 | 1.0 | 1.0 | 0.00 | 0.00 | 0.00 | 77 | 1016.5 |
| 20260508025827 | 63 | 267 | 0.0 | 0.0 | 0.00 | 0.00 | 0.00 | 78 | 1016.9 |
| 20260508025324 | 63 | 268 | 0.0 | 0.0 | 0.00 | 0.00 | 0.00 | 78 | 1017.2 |
| 20260508024821 | 63 | 272 | 0.0 | 0.0 | 0.00 | 0.00 | 0.00 | 78 | 1016.9 |
| 20260508024317 | 63 | 268 | 0.0 | 0.0 | 0.00 | 0.00 | 0.00 | 77 | 1016.5 |
| 20260508023814 | 63 | 256 | 0.0 | 0.0 | 0.00 | 0.00 | 0.00 | 76 | 1015.8 |
| 20260508023311 | 63 | 244 | 0.0 | 0.0 | 0.00 | 0.00 | 0.00 | 76 | 1015.8 |
| 20260508022807 | 64 | 336 | 2.0 | 2.0 | 0.00 | 0.00 | 0.00 | 75 | 1015.8 |
| 20260508022306 | 64 | 43 | 0.0 | 1.0 | 0.00 | 0.00 | 0.00 | 75 | 1015.8 |
| 20260508021801 | 64 | 52 | 1.0 | 1.0 | 0.00 | 0.00 | 0.00 | 75 | 1015.8 |
| 20260508021256 | 64 | 343 | 2.0 | 2.0 | 0.00 | 0.00 | 0.00 | 75 | 1015.5 |
| 20260508020752 | 64 | 350 | 2.0 | 2.0 | 0.00 | 0.00 | 0.00 | 74 | 1015.5 |
| 20260508020251 | 64 | 45 | 0.0 | 0.0 | 0.00 | 0.00 | 0.00 | 75 | 1015.2 |
| 20260508015747 | 64 | 89 | 1.0 | 1.0 | 0.00 | 0.00 | 0.00 | 74 | 1015.2 |
| 20260508015244 | 64 | 151 | 0.0 | 0.0 | 0.00 | 0.00 | 0.00 | 74 | 1015.2 |
| 20260508014741 | 64 | 303 | 1.0 | 1.0 | 0.00 | 0.00 | 0.00 | 74 | 1015.8 |
| 20260508014238 | 64 | 282 | 1.0 | 1.0 | 0.00 | 0.00 | 0.00 | 73 | 1015.5 |
| 20260508013734 | 64 | 49 | 0.0 | 0.0 | 0.00 | 0.00 | 0.00 | 73 | 1015.2 |
| 20260508013231 | 64 | 70 | 1.0 | 1.0 | 0.00 | 0.00 | 0.00 | 73 | 1015.5 |